TIANWANG 1A (TW-1A)
1 40928U 15051D   19272.80549315  .00002739  00000-0  67710-4 0  9997
2 40928  97.1389 301.8135 0012679  63.2228  23.0794 15.41247321225050
LAPAN A2
1 40931U 15052B   19271.94698784  .00000512  00000-0 -17736-4 0  9992
2 40931   5.9983  47.5009 0012559 161.1025 198.9569 14.76612721216403
LQSAT
1 40958U 15057A   19272.74314598 +.00000018 +00000-0 +10391-4 0  9993
2 40958 097.8895 339.1070 0016751 270.5392 089.3897 14.73089896213987
CHUBUSAT 2
1 41338U 16012B   19272.95749318 +.00000382 +00000-0 +23078-4 0  9993
2 41338 031.0024 208.4895 0013668 046.0885 314.0876 15.00184762198430
CHUBUSAT 3
1 41339U 16012C   19272.91497615 +.00000302 +00000-0 +16751-4 0  9992
2 41339 031.0105 206.7221 0013522 052.7295 307.4575 15.00357393198426
OUFTI-1
1 41458U 16025C   19272.91283037 +.00001084 +00000-0 +58868-4 0  9992
2 41458 098.1008 005.0051 0166055 010.5343 349.9291 15.06046634188100
E-STAR-2
1 41459U 16025D   19272.82136357  .00000224  00000-0  15903-4 0  9993
2 41459  98.1013   4.5126 0167640  12.2642 348.2581 15.05663907188062
AAUSAT 4
1 41460U 16025E   19272.79876305 +.00001689 +00000-0 +87886-4 0  9990
2 41460 098.0954 005.9926 0156771 003.9092 356.3321 15.07638074188206
NUSAT 1
1 41557U 16033B   19272.90643967 +.00001361 +00000-0 +53457-4 0  9999
2 41557 097.4155 359.8036 0012218 296.1688 063.8294 15.27398144185845
BEESAT 4
1 41619U 16040W   19272.84984030 +.00001441 +00000-0 +63565-4 0  9998
2 41619 097.3575 333.1056 0011949 028.9818 331.2080 15.23324547169560
PRATHAM
1 41783U 16059A   19272.73671302  .00000067  00000-0  22242-4 0  9993
2 41783  98.0570 329.9866 0034694  61.2930 299.1752 14.63011015160615
ALSAT 1N
1 41789U 16059G   19272.77405640  .00000021  00000-0  13080-4 0  9993
2 41789  98.0603 332.2439 0029302  50.3606 310.0167 14.64263380160731
NAYIF 1
1 42017U 17008BX  19272.67244802 +.00001549 +00000-0 +63537-4 0  9991
2 42017 097.3939 338.6661 0006932 153.1544 207.0054 15.25740892145621
MAX VALIER SAT
1 42778U 17036P   19272.94061098 +.00000952 +00000-0 +44477-4 0  9999
2 42778 097.3440 328.2804 0011370 215.1593 144.8894 15.22151206125946
